{"data":{"norad_id":65441,"epoch":"2026-05-25T02:38:27.157056Z","epoch_age_seconds":65250,"freshness":"FRESH","line1":"1 65441U 25194H   26145.11003654  .00001553  00000+0  11164-3 0  9998","line2":"2 65441  97.4536 359.2920 0002920  83.1728 276.9832 15.05654255 41143","mean_motion":15.05654255,"eccentricity":0.000292,"inclination_deg":97.4536,"raan_deg":359.292,"arg_perigee_deg":83.1728,"mean_anomaly_deg":276.9832,"bstar":0.00011164,"rev_number":4114,"period_min":95.639486636326,"perigee_km":547.47523282933,"apogee_km":551.52097172906,"semimajor_km":6927.6351022792,"source":"CELESTRAK","updated_at":"2026-05-25T13:38:20.807125Z"}}